Location: Santa Fe
(35.6870°N, 105.9370°W)
Time: 17:30:55
(UTC-07:00)

Amateur Radio Satellites - All Passes

Search period start: 10 December 2017 17:00
Search period end: 11 December 2017 17:00
Location: Santa Fe, 35.6870°N, 105.9370°W

Satellite Date Start Highest point End Downlink Frequencies (MHz)
Time Altitude Azimuth
XW-2B 10 Dec 17:09:11 17:12:49 48° 75° (ENE) 17:16:29 145.730 - 145.750
KAITUO 1B 10 Dec 17:14:07 17:17:35 39° 74° (ENE) 17:21:06 145.475/437.950
CUBESAT XI-V 10 Dec 17:15:43 17:19:24 23° 291° (WNW) 17:23:05 437.345
NUDT-PHONESAT 10 Dec 17:18:46 17:22:14 42° 74° (ENE) 17:25:44 437.300
XW-2F 10 Dec 17:25:20 17:29:04 78° 77° (ENE) 17:32:51 145.980 - 146.000
XW-2C 10 Dec 17:36:09 17:39:53 67° 259° (W) 17:43:40 145.795 - 145.815
RS-15 10 Dec 17:44:01 17:54:07 28° 323° (NW) 18:04:08 29.354- 29.394
STARS 10 Dec 17:47:18 17:51:36 56° 101° (E) 17:55:52 437.465
SEEDS 10 Dec 17:47:53 17:50:56 20° 69° (ENE) 17:54:01 437.485
CUTE-I 10 Dec 17:49:41 17:55:02 73° 258° (WSW) 18:00:26 437.470
O/OREOS (USA 219) 10 Dec 17:55:09 17:56:42 12° 56° (NE) 17:58:15 437.305
CUTE 1.7 + AOD 2 10 Dec 18:00:33 18:04:36 47° 74° (ENE) 18:08:42 437.475
CUBEBUG 2 10 Dec 18:01:21 18:04:59 28° 72° (ENE) 18:08:34 437.445
LilacSat-2 10 Dec 18:07:26 18:10:31 24° 264° (W) 18:13:37 437.200
UWE-3 10 Dec 18:11:27 18:14:27 19° 69° (ENE) 18:17:25 435.000/436.395/437.385
HO-68 10 Dec 18:18:49 18:26:01 87° 74° (ENE) 18:33:15 435.675
AAUSAT CUBESAT 2 10 Dec 18:21:01 18:24:01 20° 69° (ENE) 18:27:04 437.432
nSIGHT-1 10 Dec 18:25:05 18:26:48 13° 27° (NNE) 18:28:30 .
KKS-1 10 Dec 18:28:25 18:31:31 19° 292° (WNW) 18:34:36 437.445
XW-2D 10 Dec 18:29:29 18:31:23 13° 267° (W) 18:33:19 145.860 - 145.880
PCSat 10 Dec 18:45:09 18:50:03 36° 109° (ESE) 18:54:59 145.827
ZACube-1 10 Dec 18:46:28 18:49:49 24° 71° (ENE) 18:53:11 437.345
ISS 10 Dec 18:49:55 18:52:09 17° 29° (NNE) 18:54:23 437.550
KAITUO 1B 10 Dec 18:50:51 18:51:42 11° 268° (W) 18:52:34 145.475/437.950
STRAND 1 10 Dec 19:01:34 19:06:17 37° 98° (E) 19:10:59 437.568
XW-2A 10 Dec 19:04:46 19:08:03 72° 77° (ENE) 19:11:24 145.665 - 145.685
Oscar 11 10 Dec 19:13:42 19:17:26 29° 71° (ENE) 19:21:11 .
AO-73 10 Dec 19:22:30 19:26:33 58° 75° (ENE) 19:30:37 145.935
SEEDS 10 Dec 19:22:45 19:26:23 29° 263° (W) 19:30:05 437.485
STARS 10 Dec 19:25:57 19:27:24 12° 296° (WNW) 19:28:51 437.465
O/OREOS (USA 219) 10 Dec 19:32:04 19:36:32 63° 253° (WSW) 19:40:56 437.305
CUBEBUG 2 10 Dec 19:38:23 19:41:34 20° 265° (W) 19:44:41 437.445
CUTE 1.7 + AOD 2 10 Dec 19:39:10 19:40:40 12° 269° (W) 19:42:10 437.475
UWE-3 10 Dec 19:47:04 19:50:42 28° 263° (W) 19:54:18 435.000/436.395/437.385
AAUSAT CUBESAT 2 10 Dec 19:55:39 19:59:15 28° 264° (W) 20:02:53 437.432
nSIGHT-1 10 Dec 20:00:09 20:03:21 78° 223° (SW) 20:06:32 .
DELFI C3 10 Dec 20:05:26 20:08:23 20° 70° (ENE) 20:11:21 145.870
RS-15 10 Dec 20:07:07 20:12:50 14° 358° (N) 20:18:28 29.354- 29.394
HO-68 10 Dec 20:11:03 20:14:28 14° 269° (W) 20:17:54 435.675
EO-88 10 Dec 20:18:28 20:19:41 11° 68° (ENE) 20:20:56 145.990 - 145.960
FO-29 10 Dec 20:21:25 20:28:26 66° 101° (E) 20:34:32 435.910
ZACube-1 10 Dec 20:22:48 20:26:01 22° 265° (W) 20:29:14 437.345
ISS 10 Dec 20:25:38 20:28:51 54° 225° (SW) 20:32:02 437.550
PCSat 10 Dec 20:28:52 20:33:28 28° 306° (NW) 20:38:05 145.827
STRAND 1 10 Dec 20:41:20 20:45:12 22° 293° (WNW) 20:49:03 437.568
Oscar 11 10 Dec 20:50:25 20:53:33 20° 266° (W) 20:56:42 .
BEESAT 3 10 Dec 20:50:48 20:54:45 75° 118° (ESE) 20:58:45 437.485
TIGRISAT 10 Dec 21:06:48 21:10:10 22° 96° (E) 21:13:34 435.000
UNISAT 6 10 Dec 21:08:37 21:12:14 25° 96° (E) 21:15:53 437.425
Max Valier Satellite 10 Dec 21:10:40 21:14:18 87° 257° (WSW) 21:17:58 145.860
BEESAT 2 10 Dec 21:20:04 21:23:47 38° 114° (ESE) 21:27:33 435.950
PRISM 10 Dec 21:35:49 21:37:40 13° 93° (E) 21:39:30 437.425
DELFI C3 10 Dec 21:39:39 21:42:56 25° 264° (W) 21:46:16 145.870
EO-88 10 Dec 21:49:34 21:52:56 36° 262° (W) 21:56:20 145.990 - 145.960
AO-85 10 Dec 22:01:07 22:04:20 25° 112° (ESE) 22:07:39 145.980
FO-29 10 Dec 22:07:48 22:12:37 20° 300° (WNW) 22:17:05 435.910
ESTCUBE 1 10 Dec 22:15:25 22:19:29 35° 72° (ENE) 22:23:35 437.505/2401.250
RS-15 10 Dec 22:22:17 22:31:42 26° 35° (NE) 22:40:44 29.354- 29.394
BEESAT 3 10 Dec 22:32:22 22:32:46 10° 314° (NW) 22:33:10 437.485
LO-87 10 Dec 22:34:04 22:37:37 82° 77° (ENE) 22:41:10 145.935 - 145.965
TIGRISAT 10 Dec 22:43:09 22:46:47 27° 289° (WNW) 22:50:28 435.000
UNISAT 6 10 Dec 22:45:22 22:48:48 23° 290° (WNW) 22:52:17 437.425
BEESAT 2 10 Dec 22:58:57 23:01:38 17° 310° (NW) 23:04:21 435.950
POLYITAN 1 10 Dec 23:03:32 23:06:01 15° 94° (E) 23:08:30 437.675
PRISM 10 Dec 23:09:13 23:13:06 41° 287° (WNW) 23:16:55 437.425
FALCONSAT 3 10 Dec 23:20:33 23:23:39 26° 156° (SSE) 23:26:47 435.103
AIST 2D 10 Dec 23:23:51 23:27:24 72° 283° (WNW) 23:30:55 435.315
QB50P2 10 Dec 23:27:42 23:31:32 34° 98° (E) 23:35:22 145.880/145.840
DUCHIFAT 1 10 Dec 23:40:05 23:43:49 31° 98° (E) 23:47:32 145.980
AO-85 10 Dec 23:41:34 23:44:39 22° 309° (NW) 23:47:51 145.980
SPROUT 10 Dec 23:46:15 23:50:30 86° 77° (ENE) 23:54:46 437.525
ESTCUBE 1 10 Dec 23:53:13 23:56:20 18° 266° (W) 23:59:29 437.505/2401.250
NANOSAT C BR1 11 Dec 00:03:36 00:07:49 74° 102° (ESE) 00:12:00 145.865
VELOX 1 11 Dec 00:07:49 00:12:16 89° 134° (SE) 00:16:46 145.980
EO-79 11 Dec 00:15:59 00:20:10 67° 284° (WNW) 00:24:20 145.935-145.965
RS-15 11 Dec 00:34:23 00:46:11 84° 60° (ENE) 00:57:20 29.354- 29.394
BUGSAT 1 11 Dec 00:37:51 00:41:28 31° 98° (E) 00:45:05 437.445
POLYITAN 1 11 Dec 00:38:01 00:41:53 36° 287° (WNW) 00:45:45 437.675
Oscar 19 11 Dec 00:52:07 00:56:31 27° 96° (E) 01:00:55 437.125/150
FALCONSAT 3 11 Dec 00:58:49 01:02:29 72° 170° (S) 01:06:09 435.103
Gurwin Techsat 1B 11 Dec 00:59:53 01:04:06 23° 95° (E) 01:08:17 435.225
QB50P2 11 Dec 01:04:17 01:07:01 17° 292° (WNW) 01:09:46 145.880/145.840
50 SAT 11 Dec 01:08:28 01:11:38 75° 258° (WSW) 01:14:49 437.505
UKube-1 11 Dec 01:10:51 01:15:05 55° 74° (ENE) 01:19:19 .
DUCHIFAT 1 11 Dec 01:16:22 01:19:13 18° 292° (WNW) 01:22:04 145.980
DX 1 11 Dec 01:17:16 01:21:37 72° 258° (WSW) 01:26:00 434.975-435.025
SO-50 11 Dec 01:20:20 01:24:59 65° 59° (ENE) 01:29:41 436.795
MOZHAYETS 4 11 Dec 01:27:38 01:30:27 16° 67° (ENE) 01:33:15
YUBILEINY 11 Dec 01:32:33 01:35:29 12° 76° (ENE) 01:38:25 435.215
ITUPSAT 1 11 Dec 01:36:35 01:39:15 15° 65° (ENE) 01:41:54 437.325
AO-91 11 Dec 01:40:23 01:43:55 87° 279° (W) 01:47:16 145.960
BUGSAT 1 11 Dec 02:13:58 02:16:32 17° 292° (WNW) 02:19:06 437.445
Oscar 19 11 Dec 02:31:15 02:35:46 31° 291° (WNW) 02:40:17 437.125/150
FALCONSAT 3 11 Dec 02:37:52 02:41:33 84° 184° (S) 02:45:14 435.103
CUBESAT XI-V 11 Dec 02:38:50 02:42:22 22° 68° (ENE) 02:45:56 437.345
Gurwin Techsat 1B 11 Dec 02:39:13 02:44:05 37° 290° (WNW) 02:48:55 435.225
BEESAT 11 Dec 02:46:22 02:51:07 86° 73° (ENE) 02:55:53 436.000
RS-15 11 Dec 02:49:08 02:57:00 22° 260° (W) 03:04:39 29.354- 29.394
UKube-1 11 Dec 02:50:35 02:51:22 10° 268° (W) 02:52:10 .
AO-7 11 Dec 02:54:02 03:01:45 40° 100° (E) 03:09:25 .
MOZHAYETS 4 11 Dec 03:02:56 03:07:13 42° 261° (W) 03:11:32
SO-50 11 Dec 03:03:10 03:04:53 12° 253° (WSW) 03:06:38 436.795
ITUPSAT 1 11 Dec 03:11:59 03:16:36 51° 260° (W) 03:21:15 437.325
YUBILEINY 11 Dec 03:21:56 03:30:41 78° 94° (E) 03:39:33 435.215
ITAMSAT 1 11 Dec 03:33:43 03:38:47 53° 101° (E) 03:43:48 435.822/435.867
PCSat 11 Dec 03:36:29 03:40:06 18° 50° (NE) 03:43:42 145.827
M-CUBED/EXP-1 PRIME 11 Dec 03:46:11 03:50:45 76° 289° (WNW) 03:55:02 437.505
KKS-1 11 Dec 03:46:40 03:50:10 23° 69° (ENE) 03:53:40 437.445
CUBESAT XI-V 11 Dec 04:15:24 04:19:31 31° 263° (W) 04:23:40 437.345
FALCONSAT 3 11 Dec 04:17:03 04:20:30 39° 200° (SSW) 04:23:56 435.103
STARS 11 Dec 04:40:53 04:44:51 34° 72° (ENE) 04:48:50 437.465
DOVE 4 11 Dec 04:44:06 04:48:33 51° 99° (E) 04:52:43 437.250
AO-7 11 Dec 04:46:43 04:54:25 43° 296° (WNW) 05:02:07 .
BEESAT 3 11 Dec 05:10:51 05:13:32 17° 50° (NE) 05:16:12 437.485
XW-2C 11 Dec 05:12:31 05:14:49 15° 94° (E) 05:17:06 145.795 - 145.815
ITAMSAT 1 11 Dec 05:14:33 05:17:46 17° 296° (WNW) 05:20:58 435.822/435.867
PCSat 11 Dec 05:18:34 05:23:55 63° 247° (WSW) 05:29:15 145.827
YUBILEINY 11 Dec 05:22:26 05:28:25 20° 293° (WNW) 05:34:26 435.215
KKS-1 11 Dec 05:22:41 05:26:32 28° 263° (W) 05:30:24 437.445
JUGNU 11 Dec 05:24:37 05:27:36 14° 171° (S) 05:30:36 437.505
BEESAT 2 11 Dec 05:41:59 05:43:15 11° 46° (NE) 05:44:30 435.950
LilacSat-2 11 Dec 05:42:33 05:46:14 41° 99° (E) 05:49:54 437.200
CUTE 1.7 + AOD 2 11 Dec 05:51:03 05:51:44 10° 91° (E) 05:52:26 437.475
HO-68 11 Dec 05:51:26 05:56:15 19° 93° (E) 06:01:01 435.675
FALCONSAT 3 11 Dec 05:58:36 05:59:01 10° 212° (SSW) 05:59:27 435.103
XW-2D 11 Dec 06:02:23 06:06:14 74° 100° (E) 06:10:04 145.860 - 145.880
CUTE-I 11 Dec 06:09:44 06:15:00 58° 101° (E) 06:20:12 437.470
STRAND 1 11 Dec 06:14:29 06:19:15 40° 71° (ENE) 06:24:01 437.568
XW-2B 11 Dec 06:18:07 06:21:57 71° 283° (WNW) 06:25:46 145.730 - 145.750
STARS 11 Dec 06:18:15 06:21:14 18° 265° (W) 06:24:14 437.465
KAITUO 1B 11 Dec 06:21:14 06:25:02 88° 101° (E) 06:28:49 145.475/437.950
DOVE 4 11 Dec 06:23:42 06:25:39 13° 296° (WNW) 06:27:34 437.250
NUDT-PHONESAT 11 Dec 06:24:47 06:28:33 88° 286° (WNW) 06:32:18 437.300
FO-29 11 Dec 06:29:28 06:35:26 26° 63° (ENE) 06:41:34 435.910
XW-2F 11 Dec 06:33:58 06:37:39 45° 285° (WNW) 06:41:18 145.980 - 146.000
AO-85 11 Dec 06:34:23 06:37:18 16° 48° (NE) 06:40:20 145.980
XW-2C 11 Dec 06:45:37 06:49:00 30° 288° (WNW) 06:52:23 145.795 - 145.815
BEESAT 3 11 Dec 06:47:35 06:51:09 34° 246° (WSW) 06:54:38 437.485
SEEDS 11 Dec 07:08:33 07:12:45 55° 100° (E) 07:16:53 437.485
JUGNU 11 Dec 07:12:11 07:15:51 17° 181° (S) 07:19:31 437.505
AO-73 11 Dec 07:14:14 07:16:37 14° 93° (E) 07:19:02 145.935
BEESAT 2 11 Dec 07:17:24 07:21:23 66° 243° (WSW) 07:25:17 435.950
LilacSat-2 11 Dec 07:18:33 07:20:05 12° 293° (WNW) 07:21:37 437.200
CUTE 1.7 + AOD 2 11 Dec 07:23:39 07:27:51 54° 285° (WNW) 07:32:01 437.475
CUBEBUG 2 11 Dec 07:30:11 07:34:26 83° 281° (W) 07:38:46 437.445
NO-84 11 Dec 07:35:27 07:38:26 66° 314° (NW) 07:41:40 435.350 FM
HO-68 11 Dec 07:37:21 07:44:28 69° 288° (WNW) 07:51:31 435.675
UWE-3 11 Dec 07:38:13 07:42:29 65° 101° (E) 07:46:51 435.000/436.395/437.385
AAUSAT CUBESAT 2 11 Dec 07:39:46 07:43:51 52° 100° (E) 07:47:53 437.432
CUTE-I 11 Dec 07:51:20 07:54:30 16° 296° (WNW) 07:57:40 437.470
SRMSAT 11 Dec 07:53:07 07:55:40 13° 168° (SSE) 07:58:13 437.500
STRAND 1 11 Dec 07:54:47 07:58:31 20° 266° (W) 08:02:16 437.568
XW-2A 11 Dec 08:01:16 08:04:40 68° 283° (WNW) 08:08:03 145.665 - 145.685
O/OREOS (USA 219) 11 Dec 08:03:09 08:06:35 21° 101° (E) 08:10:02 437.305
TIGRISAT 11 Dec 08:03:54 08:06:06 14° 67° (ENE) 08:08:18 435.000
UNISAT 6 11 Dec 08:05:33 08:08:13 16° 68° (ENE) 08:10:52 437.425
ZACube-1 11 Dec 08:12:13 08:16:33 83° 100° (E) 08:20:59 437.345
FO-29 11 Dec 08:12:18 08:19:44 65° 260° (W) 08:27:35 435.910
AO-85 11 Dec 08:13:14 08:18:06 69° 243° (WSW) 08:23:17 145.980
Oscar 11 11 Dec 08:38:54 08:43:17 87° 289° (WNW) 08:47:38 .
Max Valier Satellite 11 Dec 08:45:43 08:46:24 10° 92° (E) 08:47:04 145.860
SEEDS 11 Dec 08:46:40 08:47:53 11° 295° (WNW) 08:49:06 437.485
AO-73 11 Dec 08:48:53 08:52:58 41° 286° (WNW) 08:57:07 145.935
JUGNU 11 Dec 09:01:36 09:04:05 13° 191° (SSW) 09:06:35 437.505
AAUSAT CUBESAT 2 11 Dec 09:17:30 09:18:47 11° 294° (WNW) 09:20:03 437.432
DELFI C3 11 Dec 09:18:24 09:22:13 46° 99° (E) 09:25:59 145.870
EO-88 11 Dec 09:21:04 09:23:53 20° 96° (E) 09:26:40 145.990 - 145.960
HO-68 11 Dec 09:29:03 09:30:51 11° 306° (NW) 09:32:40 435.675
TIGRISAT 11 Dec 09:38:15 09:42:24 44° 261° (W) 09:46:30 435.000
SRMSAT 11 Dec 09:40:20 09:44:04 17° 179° (S) 09:47:48 437.500
UNISAT 6 11 Dec 09:40:34 09:44:37 37° 262° (W) 09:48:37 437.425
O/OREOS (USA 219) 11 Dec 09:41:40 09:45:46 31° 296° (WNW) 09:49:51 437.305
PRISM 11 Dec 09:54:37 09:58:47 88° 76° (ENE) 10:02:58 437.425
AIST 2D 11 Dec 09:55:19 09:58:06 23° 72° (ENE) 10:00:54 435.315
Max Valier Satellite 11 Dec 10:16:51 10:20:21 40° 286° (WNW) 10:23:52 145.860
QB50P2 11 Dec 10:18:06 10:20:57 18° 68° (ENE) 10:23:49 145.880/145.840
DUCHIFAT 1 11 Dec 10:29:49 10:32:26 16° 68° (ENE) 10:35:02 145.980
NANOSAT C BR1 11 Dec 10:52:38 10:56:26 35° 72° (ENE) 11:00:14 145.865
EO-88 11 Dec 10:54:38 10:57:22 20° 289° (WNW) 11:00:05 145.990 - 145.960
DELFI C3 11 Dec 10:55:20 10:56:29 11° 294° (WNW) 10:57:36 145.870
nSIGHT-1 11 Dec 11:01:00 11:02:15 12° 127° (SE) 11:03:29 .
EO-79 11 Dec 11:04:58 11:09:06 58° 75° (ENE) 11:13:13 145.935-145.965
BUGSAT 1 11 Dec 11:25:38 11:28:05 16° 68° (ENE) 11:30:31 437.445
POLYITAN 1 11 Dec 11:26:50 11:31:00 75° 257° (WSW) 11:35:13 437.675
ISS 11 Dec 11:27:55 11:30:14 18° 129° (SE) 11:32:34 437.550
AIST 2D 11 Dec 11:29:00 11:31:12 16° 266° (W) 11:33:26 435.315
SRMSAT 11 Dec 11:29:23 11:32:29 14° 189° (S) 11:35:35 437.500
SPROUT 11 Dec 11:35:37 11:38:28 17° 94° (E) 11:41:18 437.525
LO-87 11 Dec 11:36:41 11:40:07 50° 285° (WNW) 11:43:32 145.935 - 145.965
ESTCUBE 1 11 Dec 11:46:46 11:51:18 71° 285° (WNW) 11:55:48 437.505/2401.250
QB50P2 11 Dec 11:52:43 11:56:28 31° 262° (W) 12:00:14 145.880/145.840
VELOX 1 11 Dec 12:01:27 12:04:46 21° 95° (E) 12:08:03 145.980
DUCHIFAT 1 11 Dec 12:03:58 12:07:46 34° 262° (W) 12:11:35 145.980
Oscar 19 11 Dec 12:06:10 12:10:35 30° 69° (ENE) 12:15:02 437.125/150
Gurwin Techsat 1B 11 Dec 12:18:03 12:22:34 29° 68° (ENE) 12:27:05 435.225
NANOSAT C BR1 11 Dec 12:29:42 12:32:13 15° 266° (W) 12:34:43 145.865
AO-91 11 Dec 12:32:50 12:37:52 55° 75° (ENE) 12:42:29 145.960
nSIGHT-1 11 Dec 12:34:57 12:38:05 51° 321° (NW) 12:41:14 .
RS-15 11 Dec 12:47:35 12:53:24 15° 97° (E) 12:59:10 29.354- 29.394
BUGSAT 1 11 Dec 12:59:25 13:03:08 34° 262° (W) 13:06:50 437.445
UKube-1 11 Dec 13:03:03 13:04:19 11° 92° (E) 13:05:35 .
ISS 11 Dec 13:03:27 13:06:31 35° 324° (NW) 13:09:35 437.550
DX 1 11 Dec 13:08:50 13:12:20 23° 96° (E) 13:15:48 434.975-435.025
SPROUT 11 Dec 13:10:36 13:14:23 32° 288° (WNW) 13:18:08 437.525
YUBILEINY 11 Dec 13:36:26 13:44:13 33° 73° (ENE) 13:51:54 435.215
VELOX 1 11 Dec 13:37:21 13:41:10 30° 290° (WNW) 13:44:59 145.980
Oscar 19 11 Dec 13:45:30 13:49:49 27° 264° (W) 13:54:10 437.125/150
AO-7 11 Dec 13:49:50 13:57:28 43° 64° (ENE) 14:05:08 .
Gurwin Techsat 1B 11 Dec 13:57:44 14:02:23 30° 263° (W) 14:07:03 435.225
50 SAT 11 Dec 13:59:13 14:02:20 57° 284° (WNW) 14:05:24 437.505
NO-84 11 Dec 14:10:00 14:13:08 22° 37° (NE) 14:16:23 435.350 FM
AO-91 11 Dec 14:11:38 14:14:24 15° 266° (W) 14:17:05 145.960
M-CUBED/EXP-1 PRIME 11 Dec 14:28:05 14:32:14 79° 72° (ENE) 14:36:41 437.505
UKube-1 11 Dec 14:36:24 14:40:35 51° 286° (WNW) 14:44:44 .
DX 1 11 Dec 14:44:50 14:48:24 25° 291° (WNW) 14:51:58 434.975-435.025
ITAMSAT 1 11 Dec 14:48:37 14:53:45 61° 73° (ENE) 14:58:53 435.822/435.867
BEESAT 11 Dec 14:49:47 14:53:47 27° 97° (E) 14:57:47 436.000
RS-15 11 Dec 14:51:32 15:03:44 75° 115° (ESE) 15:15:57 29.354- 29.394
MOZHAYETS 4 11 Dec 15:00:20 15:04:51 54° 100° (E) 15:09:23
ITUPSAT 1 11 Dec 15:15:07 15:19:45 49° 100° (E) 15:24:22 437.325
SO-50 11 Dec 15:31:56 15:36:04 39° 114° (ESE) 15:40:15 436.795
YUBILEINY 11 Dec 15:32:50 15:41:08 48° 271° (W) 15:49:22 435.215
AO-7 11 Dec 15:42:36 15:50:09 39° 260° (W) 15:57:48 .
DOVE 4 11 Dec 15:45:17 15:50:15 41° 72° (ENE) 15:55:08 437.250
NO-84 11 Dec 15:46:43 15:50:34 44° 231° (SW) 15:54:33 435.350 FM
CUBESAT XI-V 11 Dec 16:14:00 16:18:44 79° 102° (ESE) 16:23:26 437.345
HO-68 11 Dec 16:21:07 16:22:46 11° 54° (NE) 16:24:24 435.675
LilacSat-2 11 Dec 16:22:53 16:24:53 14° 68° (ENE) 16:26:51 437.200
BEESAT 11 Dec 16:27:28 16:31:26 27° 291° (WNW) 16:35:25 436.000
ITAMSAT 1 11 Dec 16:31:02 16:33:33 13° 268° (W) 16:36:04 435.822/435.867
MOZHAYETS 4 11 Dec 16:39:18 16:41:30 13° 295° (WNW) 16:43:42
XW-2D 11 Dec 16:41:03 16:43:59 22° 71° (ENE) 16:46:57 145.860 - 145.880
ITUPSAT 1 11 Dec 16:54:22 16:57:07 15° 295° (WNW) 16:59:53 437.325
